SL-16 DEB, 39847

Orbit data source: Space-Track

SL-16 DEB, 39847 is space debris in LEO originally from a launch on Fri, 25 Dec 1992 UTC launched from the Tyuratam Missile And Space Complex (TTMTR). Debris objects in space refer to the collection of defunct objects orbiting the Earth. Examples of debris include non-operational satellites, rocket bodies, and fragments generated from explosions, collisions, or faulty payload assembly.

Loading next visibility...
Identifier
39847, 1992-093KZ
Orbit
LEO
Country
Flag of CISCIS
Related business
Manufacturer
Unknown
Mission
Spacecraft
Bus & Motor
Unknown
Mass
Unknown
Launch date (UTC)
1992-12-25 (33 years ago)
Launch vehicle
Unknown
Launch site
Tyuratam Missile And Space Complex (TTMTR)
Object type
Payload
Rocket body
Debris
Shape & HBR
Unknown shape, 0.1 m
Radar Cross Section
Small (<0.1 m²)

Expand to show TLE details & history
Last TLE update: 2 days ago

TLE from 2 days ago
0 SL-16 DEB
1 39847U 92093KZ  25351.94491733  .00001096  00000-0  34258-3 0  9991
2 39847  71.0341  75.4419 0058319 328.9063  30.8626 14.41994388605508
Epoch: 2025-12-17T22:40Z
TLE epoch observation values (Epoch: 2025-12-17T22:40:40.857Z)
Latitude
-0.00006°
Longitude
8.46414°
Altitude
718.715 km
Speed
7.515 km/s
True Right ascension
05h 01m 46s
True Declination
0° 00' 00"
Sunlit
Object was in full shadow at epoch
Visualization orbit readout
Latitude
Unknown
Longitude
Unknown
Altitude
Unknown
Speed
Unknown
Apparent Right ascension
Unknown
Apparent Declination
Unknown
Sunlit
N/A
Visualization observer readout
Local Sidereal Time
13:14:08
Azimuth
Unknown
Elevation
Unknown
Doppler factor
Unknown
Orbital elements
Apogee altitude
791.381 km
Perigee altitude
708.242 km
Semi-major axis
7,127.949 km
Eccentricity
0.00583
Inclination
71.0341°
RAAN
75.4419°
Arg. of periapsis
328.9063°
True anomaly
31.20757°
Mean anomaly
30.8626°
Eccentric anomaly
31.03487°
Mean motion
3.60659 °/min
Orbital period
99.82 mins
BSTAR
0.00034258
Loading maneuver chart data...
Computing Atmospheric mass density...
Loading historical data...
Loading historical data...
Loading historical data...
Loading historical data...
Loading historical data...
Loading historical data...
Loading historical data...

Documentation

Showing up to 5 results
|